Location: Borz?cin
(51.1714°N, 19.6030°E)
Time: 22:48:50
(UTC+00:00)

Cosmos 2322 Rocket - Pass Details

Date: 19 May 2025
Orbit: 832 x 850 km, 71.0° (Epoch: 16 June)

Event Time Altitude Azimuth Distance (km) Brightness Sun altitude
Rises 22:50:15 0° 327° (NNW) 3,416 6.2 -18.8°
Reaches altitude 10° 22:52:46 10° 322° (NW) 2,474 5.3 -18.8°
Maximum altitude 22:58:12 48° 249° (WSW) 1,087 2.6 -18.7°
Enters shadow 23:00:17 33° 198° (SSW) 1,380 2.8 -18.7°
